| Back to River Map | <<< Previous Forecast Point | | | Next Forecast Point >>> | Printer Version | Graph Version |  |
|
NORTH FORK HUMBOLDT RIVER - DEVILS GATE (DEVN2)
| Latitude: 41.18º N | Longitude: 115.49º W | Elevation: 5370 Feet | | Forecast Type: Unofficial Location |
| Location: Elko County in Nevada | Bulletin Group: Humboldt | River Group: Humboldt |
| Issuance Time: | May 08 2026 at 8:27 AM PDT | Next Issuance: | May 09 2026 at 9:00 AM PDT
| |
| Action/Monitor: N/A | Minor Flood: N/A | Moderate Flood: N/A | Major Flood: N/A |
# Tabular Observed and Forecast Hydrograph Information
#
# Location: North Fork Humboldt River - Devils Gate (DEVN2)
#
# File Generation Time: 05/08/2026 at 08:27 AM PDT
# Data Interval: 1 Hour
#
# Most Recent Date & Time of Maximum Observed: 05/04/2026 at 05:00 PM PDT
# Maximum Observed Stage: 11.79 Feet
# Maximum Observed Flow: 17 cfs
#
# Earliest Date & Time of Maximum Forecast: 05/08/2026 at 09:00 AM PDT
# Maximum Forecast Stage: 11.70 Feet
# Maximum Forecast Flow: 14 cfs
#
# OBSERVED
#
# Date & Time (Local) Stage (Feet) Flow (cfs) Trend Observed Status
# ---------------------------------------------------------------------------------
05/03/2026 08 AM PDT 11.78 17 Not Applicable
05/03/2026 09 AM PDT 11.78 17 0 Not Applicable
05/03/2026 10 AM PDT 11.77 16 - Not Applicable
05/03/2026 11 AM PDT 11.78 17 + Not Applicable
05/03/2026 12 PM PDT 11.79 17 + Not Applicable
05/03/2026 01 PM PDT 11.79 17 0 Not Applicable
05/03/2026 02 PM PDT 11.79 17 0 Not Applicable
05/03/2026 03 PM PDT 11.78 17 - Not Applicable
05/03/2026 04 PM PDT 11.77 16 - Not Applicable
05/03/2026 05 PM PDT 11.77 16 0 Not Applicable
05/03/2026 06 PM PDT 11.76 16 - Not Applicable
05/03/2026 07 PM PDT 11.76 16 0 Not Applicable
05/03/2026 08 PM PDT 11.76 16 0 Not Applicable
05/03/2026 09 PM PDT 11.76 16 0 Not Applicable
05/03/2026 10 PM PDT 11.76 16 0 Not Applicable
05/03/2026 11 PM PDT 11.76 16 0 Not Applicable
05/04/2026 12 AM PDT 11.76 16 0 Not Applicable
05/04/2026 01 AM PDT 11.76 16 0 Not Applicable
05/04/2026 02 AM PDT 11.76 16 0 Not Applicable
05/04/2026 03 AM PDT 11.76 16 0 Not Applicable
05/04/2026 04 AM PDT 11.76 16 0 Not Applicable
05/04/2026 05 AM PDT 11.77 16 + Not Applicable
05/04/2026 06 AM PDT 11.76 16 - Not Applicable
05/04/2026 07 AM PDT 11.76 16 0 Not Applicable
05/04/2026 08 AM PDT 11.76 16 0 Not Applicable
05/04/2026 09 AM PDT 11.77 16 + Not Applicable
05/04/2026 10 AM PDT 11.78 17 + Not Applicable
05/04/2026 11 AM PDT 11.77 16 - Not Applicable
05/04/2026 12 PM PDT 11.77 16 0 Not Applicable
05/04/2026 01 PM PDT 11.77 16 0 Not Applicable
05/04/2026 02 PM PDT 11.77 16 0 Not Applicable
05/04/2026 03 PM PDT 11.76 16 - Not Applicable
05/04/2026 04 PM PDT 11.76 16 0 Not Applicable
05/04/2026 05 PM PDT 11.79 17 + Not Applicable
05/04/2026 06 PM PDT 11.77 16 - Not Applicable
05/04/2026 07 PM PDT 11.74 15 - Not Applicable
05/04/2026 08 PM PDT 11.74 15 0 Not Applicable
05/04/2026 09 PM PDT 11.74 15 0 Not Applicable
05/04/2026 10 PM PDT 11.75 16 + Not Applicable
05/04/2026 11 PM PDT 11.73 15 - Not Applicable
05/05/2026 12 AM PDT 11.73 15 0 Not Applicable
05/05/2026 01 AM PDT 11.73 15 0 Not Applicable
05/05/2026 02 AM PDT 11.73 15 0 Not Applicable
05/05/2026 03 AM PDT 11.73 15 0 Not Applicable
05/05/2026 04 AM PDT 11.72 15 - Not Applicable
05/05/2026 05 AM PDT 11.72 15 0 Not Applicable
05/05/2026 06 AM PDT 11.73 15 + Not Applicable
05/05/2026 07 AM PDT 11.72 15 - Not Applicable
05/05/2026 08 AM PDT 11.74 15 + Not Applicable
05/05/2026 09 AM PDT 11.74 15 0 Not Applicable
05/05/2026 10 AM PDT 11.74 15 0 Not Applicable
05/05/2026 11 AM PDT 11.74 15 0 Not Applicable
05/05/2026 12 PM PDT 11.75 16 + Not Applicable
05/05/2026 01 PM PDT 11.75 16 0 Not Applicable
05/05/2026 02 PM PDT 11.76 16 + Not Applicable
05/05/2026 03 PM PDT 11.77 16 + Not Applicable
05/05/2026 04 PM PDT 11.78 17 + Not Applicable
05/05/2026 05 PM PDT 11.78 17 0 Not Applicable
05/05/2026 06 PM PDT 11.77 16 - Not Applicable
05/05/2026 07 PM PDT 11.76 16 - Not Applicable
05/05/2026 08 PM PDT 11.75 16 - Not Applicable
05/05/2026 09 PM PDT 11.74 15 - Not Applicable
05/05/2026 10 PM PDT 11.74 15 0 Not Applicable
05/05/2026 11 PM PDT 11.75 16 + Not Applicable
05/06/2026 12 AM PDT 11.75 16 0 Not Applicable
05/06/2026 01 AM PDT 11.74 15 - Not Applicable
05/06/2026 02 AM PDT 11.74 15 0 Not Applicable
05/06/2026 03 AM PDT 11.73 15 - Not Applicable
05/06/2026 04 AM PDT 11.72 15 - Not Applicable
05/06/2026 05 AM PDT 11.74 15 + Not Applicable
05/06/2026 06 AM PDT 11.73 15 - Not Applicable
05/06/2026 07 AM PDT 11.72 15 - Not Applicable
05/06/2026 08 AM PDT 11.73 15 + Not Applicable
05/06/2026 09 AM PDT 11.73 15 0 Not Applicable
05/06/2026 10 AM PDT 11.74 15 + Not Applicable
05/06/2026 11 AM PDT 11.73 15 - Not Applicable
05/06/2026 12 PM PDT 11.73 15 0 Not Applicable
05/06/2026 01 PM PDT 11.73 15 0 Not Applicable
05/06/2026 02 PM PDT 11.73 15 0 Not Applicable
05/06/2026 03 PM PDT 11.72 15 - Not Applicable
05/06/2026 04 PM PDT 11.73 15 + Not Applicable
05/06/2026 05 PM PDT 11.72 15 - Not Applicable
05/06/2026 06 PM PDT 11.72 15 0 Not Applicable
05/06/2026 07 PM PDT 11.72 15 0 Not Applicable
05/06/2026 08 PM PDT 11.71 14 - Not Applicable
05/06/2026 09 PM PDT 11.72 15 + Not Applicable
05/06/2026 10 PM PDT 11.72 15 0 Not Applicable
05/06/2026 11 PM PDT 11.72 15 0 Not Applicable
05/07/2026 12 AM PDT 11.71 14 - Not Applicable
05/07/2026 01 AM PDT 11.71 14 0 Not Applicable
05/07/2026 02 AM PDT 11.70 14 - Not Applicable
05/07/2026 03 AM PDT 11.70 14 0 Not Applicable
05/07/2026 04 AM PDT 11.70 14 0 Not Applicable
05/07/2026 05 AM PDT 11.71 14 + Not Applicable
05/07/2026 06 AM PDT 11.70 14 - Not Applicable
05/07/2026 07 AM PDT 11.71 14 + Not Applicable
05/07/2026 08 AM PDT 11.71 14 0 Not Applicable
05/07/2026 09 AM PDT 11.70 14 - Not Applicable
05/07/2026 10 AM PDT 11.70 14 0 Not Applicable
05/07/2026 11 AM PDT 11.72 15 + Not Applicable
05/07/2026 12 PM PDT 11.72 15 0 Not Applicable
05/07/2026 01 PM PDT 11.72 15 0 Not Applicable
05/07/2026 02 PM PDT 11.72 15 0 Not Applicable
05/07/2026 03 PM PDT 11.71 14 - Not Applicable
05/07/2026 04 PM PDT 11.71 14 0 Not Applicable
05/07/2026 05 PM PDT 11.72 15 + Not Applicable
05/07/2026 06 PM PDT 11.71 14 - Not Applicable
05/07/2026 07 PM PDT 11.71 14 0 Not Applicable
05/07/2026 08 PM PDT 11.71 14 0 Not Applicable
05/07/2026 09 PM PDT 11.71 14 0 Not Applicable
05/07/2026 10 PM PDT 11.70 14 - Not Applicable
05/07/2026 11 PM PDT 11.71 14 + Not Applicable
05/08/2026 12 AM PDT 11.72 15 + Not Applicable
05/08/2026 01 AM PDT 11.71 14 - Not Applicable
05/08/2026 02 AM PDT 11.70 14 - Not Applicable
05/08/2026 03 AM PDT 11.70 14 0 Not Applicable
05/08/2026 04 AM PDT 11.70 14 0 Not Applicable
05/08/2026 05 AM PDT 11.69 14 - Not Applicable
05/08/2026 06 AM PDT 11.70 14 + Not Applicable
05/08/2026 07 AM PDT 11.70 14 0 Not Applicable
05/08/2026 08 AM PDT 11.70 14 0 Not Applicable
#
# FORECAST
#
# Date & Time (Local) Stage (Feet) Flow (cfs) Trend Forecast Status
# ---------------------------------------------------------------------------------
05/08/2026 09 AM PDT 11.70 14 Not Applicable
05/08/2026 10 AM PDT 11.69 14 - Not Applicable
05/08/2026 11 AM PDT 11.69 14 0 Not Applicable
05/08/2026 12 PM PDT 11.69 14 0 Not Applicable
05/08/2026 01 PM PDT 11.69 14 0 Not Applicable
05/08/2026 02 PM PDT 11.69 14 0 Not Applicable
05/08/2026 03 PM PDT 11.69 14 0 Not Applicable
05/08/2026 04 PM PDT 11.68 13 - Not Applicable
05/08/2026 05 PM PDT 11.68 13 0 Not Applicable
05/08/2026 06 PM PDT 11.69 14 + Not Applicable
05/08/2026 07 PM PDT 11.69 14 0 Not Applicable
05/08/2026 08 PM PDT 11.69 14 0 Not Applicable
05/08/2026 09 PM PDT 11.69 14 0 Not Applicable
05/08/2026 10 PM PDT 11.69 14 0 Not Applicable
05/08/2026 11 PM PDT 11.69 14 0 Not Applicable
05/09/2026 12 AM PDT 11.69 14 0 Not Applicable
05/09/2026 01 AM PDT 11.69 14 0 Not Applicable
05/09/2026 02 AM PDT 11.69 14 0 Not Applicable
05/09/2026 03 AM PDT 11.69 14 0 Not Applicable
05/09/2026 04 AM PDT 11.68 13 - Not Applicable
05/09/2026 05 AM PDT 11.68 13 0 Not Applicable
05/09/2026 06 AM PDT 11.68 13 0 Not Applicable
05/09/2026 07 AM PDT 11.68 13 0 Not Applicable
05/09/2026 08 AM PDT 11.67 13 - Not Applicable
05/09/2026 09 AM PDT 11.67 13 0 Not Applicable
05/09/2026 10 AM PDT 11.67 13 0 Not Applicable
05/09/2026 11 AM PDT 11.67 13 0 Not Applicable
05/09/2026 12 PM PDT 11.67 13 0 Not Applicable
05/09/2026 01 PM PDT 11.66 13 - Not Applicable
05/09/2026 02 PM PDT 11.66 13 0 Not Applicable
05/09/2026 03 PM PDT 11.66 13 0 Not Applicable
05/09/2026 04 PM PDT 11.66 13 0 Not Applicable
05/09/2026 05 PM PDT 11.66 13 0 Not Applicable
05/09/2026 06 PM PDT 11.66 13 0 Not Applicable
05/09/2026 07 PM PDT 11.66 13 0 Not Applicable
05/09/2026 08 PM PDT 11.66 13 0 Not Applicable
05/09/2026 09 PM PDT 11.66 13 0 Not Applicable
05/09/2026 10 PM PDT 11.66 13 0 Not Applicable
05/09/2026 11 PM PDT 11.67 13 + Not Applicable
05/10/2026 12 AM PDT 11.67 13 0 Not Applicable
05/10/2026 01 AM PDT 11.66 13 - Not Applicable
05/10/2026 02 AM PDT 11.66 13 0 Not Applicable
05/10/2026 03 AM PDT 11.66 13 0 Not Applicable
05/10/2026 04 AM PDT 11.66 13 0 Not Applicable
05/10/2026 05 AM PDT 11.66 13 0 Not Applicable
05/10/2026 06 AM PDT 11.65 13 - Not Applicable
05/10/2026 07 AM PDT 11.65 13 0 Not Applicable
05/10/2026 08 AM PDT 11.65 13 0 Not Applicable
05/10/2026 09 AM PDT 11.65 13 0 Not Applicable
05/10/2026 10 AM PDT 11.64 12 - Not Applicable
05/10/2026 11 AM PDT 11.64 12 0 Not Applicable
05/10/2026 12 PM PDT 11.64 12 0 Not Applicable
05/10/2026 01 PM PDT 11.64 12 0 Not Applicable
05/10/2026 02 PM PDT 11.64 12 0 Not Applicable
05/10/2026 03 PM PDT 11.64 12 0 Not Applicable
05/10/2026 04 PM PDT 11.64 12 0 Not Applicable
05/10/2026 05 PM PDT 11.63 12 - Not Applicable
05/10/2026 06 PM PDT 11.63 12 0 Not Applicable
05/10/2026 07 PM PDT 11.63 12 0 Not Applicable
05/10/2026 08 PM PDT 11.64 12 + Not Applicable
05/10/2026 09 PM PDT 11.64 12 0 Not Applicable
05/10/2026 10 PM PDT 11.64 12 0 Not Applicable
05/10/2026 11 PM PDT 11.64 12 0 Not Applicable
05/11/2026 12 AM PDT 11.64 12 0 Not Applicable
05/11/2026 01 AM PDT 11.64 12 0 Not Applicable
05/11/2026 02 AM PDT 11.64 12 0 Not Applicable
05/11/2026 03 AM PDT 11.63 12 - Not Applicable
05/11/2026 04 AM PDT 11.63 12 0 Not Applicable
05/11/2026 05 AM PDT 11.63 12 0 Not Applicable
05/11/2026 06 AM PDT 11.63 12 0 Not Applicable
05/11/2026 07 AM PDT 11.63 12 0 Not Applicable
05/11/2026 08 AM PDT 11.62 12 - Not Applicable
05/11/2026 09 AM PDT 11.62 12 0 Not Applicable
05/11/2026 10 AM PDT 11.62 12 0 Not Applicable
05/11/2026 11 AM PDT 11.62 12 0 Not Applicable
05/11/2026 12 PM PDT 11.62 12 0 Not Applicable
05/11/2026 01 PM PDT 11.61 11 - Not Applicable
05/11/2026 02 PM PDT 11.61 11 0 Not Applicable
05/11/2026 03 PM PDT 11.61 11 0 Not Applicable
05/11/2026 04 PM PDT 11.61 11 0 Not Applicable
05/11/2026 05 PM PDT 11.61 11 0 Not Applicable
05/11/2026 06 PM PDT 11.61 11 0 Not Applicable
05/11/2026 07 PM PDT 11.61 11 0 Not Applicable
05/11/2026 08 PM PDT 11.61 11 0 Not Applicable
05/11/2026 09 PM PDT 11.61 11 0 Not Applicable
05/11/2026 10 PM PDT 11.61 11 0 Not Applicable
05/11/2026 11 PM PDT 11.61 11 0 Not Applicable
05/12/2026 12 AM PDT 11.61 11 0 Not Applicable
05/12/2026 01 AM PDT 11.61 11 0 Not Applicable
05/12/2026 02 AM PDT 11.61 11 0 Not Applicable
05/12/2026 03 AM PDT 11.61 11 0 Not Applicable
05/12/2026 04 AM PDT 11.61 11 0 Not Applicable
05/12/2026 05 AM PDT 11.60 11 - Not Applicable
05/12/2026 06 AM PDT 11.60 11 0 Not Applicable
05/12/2026 07 AM PDT 11.60 11 0 Not Applicable
05/12/2026 08 AM PDT 11.60 11 0 Not Applicable
05/12/2026 09 AM PDT 11.59 11 - Not Applicable
05/12/2026 10 AM PDT 11.59 11 0 Not Applicable
05/12/2026 11 AM PDT 11.59 11 0 Not Applicable
05/12/2026 12 PM PDT 11.58 11 - Not Applicable
05/12/2026 01 PM PDT 11.58 11 0 Not Applicable
05/12/2026 02 PM PDT 11.58 11 0 Not Applicable
05/12/2026 03 PM PDT 11.57 11 - Not Applicable
05/12/2026 04 PM PDT 11.57 11 0 Not Applicable
05/12/2026 05 PM PDT 11.57 11 0 Not Applicable
05/12/2026 06 PM PDT 11.57 11 0 Not Applicable
05/12/2026 07 PM PDT 11.57 11 0 Not Applicable
05/12/2026 08 PM PDT 11.57 11 0 Not Applicable
05/12/2026 09 PM PDT 11.58 11 + Not Applicable
05/12/2026 10 PM PDT 11.58 11 0 Not Applicable
05/12/2026 11 PM PDT 11.58 11 0 Not Applicable
05/13/2026 12 AM PDT 11.58 11 0 Not Applicable
05/13/2026 01 AM PDT 11.58 11 0 Not Applicable
05/13/2026 02 AM PDT 11.57 11 - Not Applicable
05/13/2026 03 AM PDT 11.57 11 0 Not Applicable
05/13/2026 04 AM PDT 11.57 11 0 Not Applicable
05/13/2026 05 AM PDT 11.56 11 - Not Applicable
#
# NOTE 1: Stages are rounded to the nearest hundredth (.01) of a foot.
# NOTE 2: Flows are rounded to the nearest (1) cfs.
# NOTE 3: Trends are determined using hourly change in unrounded stage and flow.
# NOTE 4: Maximum Values are determined using unrounded stage and flow.
|